Datetime-UTC, Datetime-J2000, North, East, Up
2024/03/23 00:00:00, 764424000.00, 0.000000, 0.000000, 0.000000
2024/03/23 00:05:00, 764424300.00, -0.001200, -0.002900, -0.007200
2024/03/23 00:10:00, 764424600.00, 0.001100, 0.002300, -0.014900
2024/03/23 00:15:00, 764424900.00, -0.003000, 0.004600, -0.003900
2024/03/23 00:20:00, 764425200.00, 0.001400, -0.000800, -0.002700
2024/03/23 00:25:00, 764425500.00, 0.012300, -0.001700, -0.013000
2024/03/23 00:30:00, 764425800.00, -0.000100, -0.007600, 0.008200
2024/03/23 00:35:00, 764426100.00, 0.009600, -0.006500, -0.015400
2024/03/23 00:40:00, 764426400.00, -0.019700, 0.009100, -0.021800
2024/03/23 00:45:00, 764426700.00, -0.001100, -0.003200, -0.013900
2024/03/23 00:50:00, 764427000.00, 0.003000, -0.001300, -0.016000
2024/03/23 00:55:00, 764427300.00, -0.000100, 0.007800, 0.005000
2024/03/23 01:00:00, 764427600.00, 0.003200, 0.001100, -0.000400
2024/03/23 01:05:00, 764427900.00, 0.001300, -0.003000, 0.009800
2024/03/23 01:10:00, 764428200.00, -0.012800, 0.004400, 0.003700
2024/03/23 01:15:00, 764428500.00, 0.007700, -0.001500, -0.013100
2024/03/23 01:20:00, 764428800.00, 0.003600, 0.003300, -0.020400
2024/03/23 01:25:00, 764429100.00, 0.004000, -0.001200, 0.002800
2024/03/23 01:30:00, 764429400.00, 0.018600, 0.001100, -0.011900
2024/03/23 01:35:00, 764429700.00, -0.000500, -0.000800, 0.011000
2024/03/23 01:40:00, 764430000.00, 0.001800, 0.002900, -0.005800
2024/03/23 01:45:00, 764430300.00, 0.008500, 0.004200, 0.019000
2024/03/23 01:50:00, 764430600.00, 0.005500, 0.003000, 0.015000
2024/03/23 01:55:00, 764430900.00, 0.009500, 0.008900, -0.004500
2024/03/23 02:00:00, 764431200.00, 0.012400, 0.001400, 0.006400
2024/03/23 02:05:00, 764431500.00, 0.002100, 0.005900, 0.006600
2024/03/23 02:10:00, 764431800.00, 0.013500, 0.011000, 0.010200
2024/03/23 02:15:00, 764432100.00, 0.007800, 0.002600, 0.020900
2024/03/23 02:20:00, 764432400.00, 0.004600, 0.009700, 0.020100
2024/03/23 02:25:00, 764432700.00, 0.014100, 0.014700, 0.008400
2024/03/23 02:30:00, 764433000.00, 0.000300, 0.010200, 0.005500
2024/03/23 02:35:00, 764433300.00, 0.008900, 0.008100, 0.003600
2024/03/23 02:40:00, 764433600.00, 0.007900, 0.011600, 0.013800
2024/03/23 02:45:00, 764433900.00, 0.016900, 0.015000, -0.007800
2024/03/23 02:50:00, 764434200.00, 0.009100, 0.013700, 0.007900
2024/03/23 02:55:00, 764434500.00, 0.000100, 0.006700, 0.006000
2024/03/23 03:00:00, 764434800.00, 0.000400, 0.011100, 0.024000
2024/03/23 03:05:00, 764435100.00, 0.000300, 0.007900, 0.015600
2024/03/23 03:10:00, 764435400.00, 0.010700, 0.009900, 0.021100
2024/03/23 03:15:00, 764435700.00, 0.003100, 0.008400, 0.013400
2024/03/23 03:20:00, 764436000.00, 0.020400, 0.009500, 0.016300
2024/03/23 03:25:00, 764436300.00, 0.005800, 0.009800, 0.002500
2024/03/23 03:30:00, 764436600.00, 0.015100, 0.006100, 0.017800
2024/03/23 03:35:00, 764436900.00, -0.007200, 0.013100, -0.000900
2024/03/23 03:40:00, 764437200.00, 0.002000, 0.011400, 0.009200
2024/03/23 03:45:00, 764437500.00, 0.022400, 0.010800, 0.012400
2024/03/23 03:50:00, 764437800.00, 0.013200, 0.005300, -0.001700
2024/03/23 03:55:00, 764438100.00, -0.002300, 0.009200, -0.003400
2024/03/23 04:00:00, 764438400.00, 0.005400, 0.008200, -0.004800
2024/03/23 04:05:00, 764438700.00, -0.001700, 0.008800, 0.002500
2024/03/23 04:10:00, 764439000.00, -0.002200, 0.011600, -0.005700
2024/03/23 04:15:00, 764439300.00, -0.006600, 0.009300, -0.002000
2024/03/23 04:20:00, 764439600.00, -0.004100, -0.001400, -0.007600
2024/03/23 04:25:00, 764439900.00, -0.003500, 0.002300, -0.018800
2024/03/23 04:30:00, 764440200.00, -0.005000, 0.000600, -0.004300
2024/03/23 04:35:00, 764440500.00, 0.003200, 0.007000, 0.012100
2024/03/23 04:40:00, 764440800.00, -0.005100, 0.000200, -0.003000
2024/03/23 04:45:00, 764441100.00, -0.001800, 0.007600, -0.011400
2024/03/23 04:50:00, 764441400.00, -0.011700, 0.004700, 0.029200
2024/03/23 04:55:00, 764441700.00, -0.014700, 0.014300, 0.000600
2024/03/23 05:00:00, 764442000.00, 0.008500, 0.008100, 0.019100
2024/03/23 05:05:00, 764442300.00, -0.003500, 0.008300, 0.000400
2024/03/23 05:10:00, 764442600.00, 0.004500, -0.003000, 0.033900
2024/03/23 05:15:00, 764442900.00, 0.001700, 0.001700, 0.023900
2024/03/23 05:20:00, 764443200.00, 0.006300, 0.003600, 0.013700
2024/03/23 05:25:00, 764443500.00, 0.000600, 0.002400, 0.009600
2024/03/23 05:30:00, 764443800.00, -0.009800, 0.012000, 0.018700
2024/03/23 05:35:00, 764444100.00, 0.001200, 0.017800, 0.015400
2024/03/23 05:40:00, 764444400.00, 0.002500, 0.006100, 0.011500
2024/03/23 05:45:00, 764444700.00, -0.004400, 0.000400, 0.024500
2024/03/23 05:50:00, 764445000.00, 0.014300, 0.007000, 0.040400
2024/03/23 05:55:00, 764445300.00, 0.004700, 0.004100, 0.007300
2024/03/23 06:00:00, 764445600.00, 0.010600, 0.011400, 0.023300
2024/03/23 06:05:00, 764445900.00, 0.007300, 0.002900, 0.029800
2024/03/23 06:10:00, 764446200.00, 0.006800, 0.002800, 0.009900
2024/03/23 06:15:00, 764446500.00, -0.011200, 0.007400, 0.005700
2024/03/23 06:20:00, 764446800.00, -0.012800, 0.011900, 0.006200
2024/03/23 06:25:00, 764447100.00, -0.019900, 0.009600, 0.004700
2024/03/23 06:30:00, 764447400.00, 0.006900, 0.015800, 0.006800
2024/03/23 06:35:00, 764447700.00, 0.005300, 0.011800, 0.005400
2024/03/23 06:40:00, 764448000.00, 0.016400, 0.014800, 0.018100
2024/03/23 06:45:00, 764448300.00, 0.021900, 0.026300, 0.012600
2024/03/23 06:50:00, 764448600.00, 0.033300, 0.019500, -0.007400
2024/03/23 06:55:00, 764448900.00, 0.013800, 0.018100, 0.017900
2024/03/23 07:00:00, 764449200.00, 0.013200, 0.018500, -0.009600
2024/03/23 07:05:00, 764449500.00, -0.011700, 0.014700, 0.042800
2024/03/23 07:10:00, 764449800.00, 0.008600, 0.018000, 0.009200
2024/03/23 07:15:00, 764450100.00, 0.023200, 0.019000, -0.000900
2024/03/23 07:20:00, 764450400.00, 0.018300, 0.021300, -0.008700
2024/03/23 07:25:00, 764450700.00, 0.006300, 0.020100, 0.014100
2024/03/23 07:30:00, 764451000.00, 0.006500, 0.017600, -0.013700
2024/03/23 07:35:00, 764451300.00, 0.015400, 0.024200, 0.022300
2024/03/23 07:40:00, 764451600.00, 0.007100, 0.018900, 0.008200
2024/03/23 07:45:00, 764451900.00, 0.002100, 0.025800, 0.001400
2024/03/23 07:50:00, 764452200.00, 0.009300, 0.022100, 0.018300
2024/03/23 07:55:00, 764452500.00, -0.000300, 0.024700, -0.014800
2024/03/23 08:00:00, 764452800.00, 0.015200, 0.028500, 0.013000
2024/03/23 08:05:00, 764453100.00, 0.006100, 0.034500, 0.051000
2024/03/23 08:10:00, 764453400.00, 0.007500, 0.030300, 0.065600
2024/03/23 08:15:00, 764453700.00, 0.003900, 0.031300, 0.077900
2024/03/23 08:20:00, 764454000.00, 0.001100, 0.022400, 0.035100
2024/03/23 08:25:00, 764454300.00, 0.007800, 0.020500, 0.025800
2024/03/23 08:30:00, 764454600.00, -0.000900, 0.033700, 0.001600
2024/03/23 08:35:00, 764454900.00, -0.005400, 0.029500, -0.001200
2024/03/23 08:40:00, 764455200.00, 0.000900, 0.035100, 0.020800
2024/03/23 08:45:00, 764455500.00, -0.000100, 0.023500, 0.046000
2024/03/23 08:50:00, 764455800.00, -0.001900, 0.038200, 0.016900
2024/03/23 08:55:00, 764456100.00, 0.007900, 0.034500, 0.005700
2024/03/23 09:00:00, 764456400.00, -0.013500, 0.035900, 0.015500
2024/03/23 09:05:00, 764456700.00, 0.001700, 0.027000, -0.006000
2024/03/23 09:10:00, 764457000.00, 0.009000, 0.033500, -0.012400
2024/03/23 09:15:00, 764457300.00, 0.008400, 0.036000, -0.004200
2024/03/23 09:20:00, 764457600.00, 0.006300, 0.034000, -0.018000
2024/03/23 09:25:00, 764457900.00, 0.023800, 0.037100, -0.028200
2024/03/23 09:30:00, 764458200.00, 0.009000, 0.037700, 0.005900
2024/03/23 09:35:00, 764458500.00, 0.006700, 0.036200, -0.015800
2024/03/23 09:40:00, 764458800.00, 0.015500, 0.042400, -0.003000
2024/03/23 09:45:00, 764459100.00, 0.021300, 0.031100, -0.002100
2024/03/23 09:50:00, 764459400.00, 0.002500, 0.028400, 0.035300
2024/03/23 09:55:00, 764459700.00, -0.008800, 0.050100, 0.023600
2024/03/23 10:00:00, 764460000.00, 0.018000, 0.031000, -0.004200
2024/03/23 10:05:00, 764460300.00, 0.014500, 0.047500, -0.003800
2024/03/23 10:10:00, 764460600.00, 0.020500, 0.039400, 0.020400
2024/03/23 10:15:00, 764460900.00, 0.031900, 0.032400, 0.003400
2024/03/23 10:20:00, 764461200.00, 0.003900, 0.044900, -0.006800
2024/03/23 10:25:00, 764461500.00, 0.016800, 0.044900, -0.005100
2024/03/23 10:30:00, 764461800.00, 0.005200, 0.038400, -0.014800
2024/03/23 10:35:00, 764462100.00, 0.013300, 0.030500, -0.004500
2024/03/23 10:40:00, 764462400.00, 0.002600, 0.045500, 0.003100
2024/03/23 10:45:00, 764462700.00, 0.007400, 0.030800, -0.008500
2024/03/23 10:50:00, 764463000.00, 0.011300, 0.040400, 0.018100
2024/03/23 10:55:00, 764463300.00, 0.018800, 0.033800, -0.011600
2024/03/23 11:00:00, 764463600.00, 0.008700, 0.028600, -0.002500
2024/03/23 11:05:00, 764463900.00, 0.008300, 0.033000, -0.032400
2024/03/23 11:10:00, 764464200.00, 0.011600, 0.034300, -0.026900
2024/03/23 11:15:00, 764464500.00, 0.021400, 0.033800, 0.004800
2024/03/23 11:20:00, 764464800.00, 0.010200, 0.037000, -0.015000
2024/03/23 11:25:00, 764465100.00, 0.021700, 0.026700, -0.009800
2024/03/23 11:30:00, 764465400.00, -0.000400, 0.037100, 0.002800
2024/03/23 11:35:00, 764465700.00, 0.004600, 0.041400, -0.004900
2024/03/23 11:40:00, 764466000.00, 0.003200, 0.038400, 0.003800
2024/03/23 11:45:00, 764466300.00, -0.011200, 0.038200, 0.036000
2024/03/23 11:50:00, 764466600.00, 0.000200, 0.033300, -0.001600
2024/03/23 11:55:00, 764466900.00, -0.000300, 0.023900, -0.007600
2024/03/23 12:00:00, 764467200.00, 0.014700, 0.036600, -0.019900
2024/03/23 12:05:00, 764467500.00, 0.008600, 0.031000, -0.032000
2024/03/23 12:10:00, 764467800.00, 0.016400, 0.035100, -0.028600
2024/03/23 12:15:00, 764468100.00, 0.011600, 0.036100, -0.014100
2024/03/23 12:20:00, 764468400.00, 0.026000, 0.024100, -0.046400
2024/03/23 12:25:00, 764468700.00, 0.033200, 0.025200, -0.044200
2024/03/23 12:30:00, 764469000.00, -0.013100, 0.041200, -0.012500
2024/03/23 12:35:00, 764469300.00, 0.019400, 0.026200, -0.028800
2024/03/23 12:40:00, 764469600.00, 0.007000, 0.030600, 0.001400
2024/03/23 12:45:00, 764469900.00, 0.001900, 0.023400, -0.006700
2024/03/23 12:50:00, 764470200.00, 0.005800, 0.028900, -0.013700
2024/03/23 12:55:00, 764470500.00, 0.013300, 0.030700, -0.021600
2024/03/23 13:00:00, 764470800.00, 0.029100, 0.026100, -0.021900
2024/03/23 13:05:00, 764471100.00, 0.014000, 0.023000, -0.021800
2024/03/23 13:10:00, 764471400.00, 0.027700, 0.026600, -0.011700
2024/03/23 13:15:00, 764471700.00, 0.027100, 0.032300, 0.010300
2024/03/23 13:20:00, 764472000.00, 0.026100, 0.027400, -0.002500
2024/03/23 13:25:00, 764472300.00, 0.020200, 0.026700, -0.005600
2024/03/23 13:30:00, 764472600.00, 0.024400, 0.028800, -0.006700
2024/03/23 13:35:00, 764472900.00, 0.006400, 0.026100, -0.018300
2024/03/23 13:40:00, 764473200.00, 0.023800, 0.034000, -0.020500
2024/03/23 13:45:00, 764473500.00, 0.012000, 0.026300, 0.002600
2024/03/23 13:50:00, 764473800.00, 0.020000, 0.028100, -0.001400
2024/03/23 13:55:00, 764474100.00, 0.006100, 0.024500, 0.002800
2024/03/23 14:00:00, 764474400.00, 0.019400, 0.032400, 0.003000
2024/03/23 14:05:00, 764474700.00, 0.007600, 0.034800, -0.016500
2024/03/23 14:10:00, 764475000.00, 0.031300, 0.032400, 0.012200
2024/03/23 14:15:00, 764475300.00, 0.017400, 0.029500, -0.005600
2024/03/23 14:20:00, 764475600.00, 0.023600, 0.028600, -0.006800
2024/03/23 14:25:00, 764475900.00, 0.028800, 0.029200, -0.011700
2024/03/23 14:30:00, 764476200.00, 0.013400, 0.023900, -0.015200
2024/03/23 14:35:00, 764476500.00, 0.014800, 0.024100, -0.008900
2024/03/23 14:40:00, 764476800.00, 0.007200, 0.026100, -0.026900
2024/03/23 14:45:00, 764477100.00, 0.010500, 0.023900, 0.003800
2024/03/23 14:50:00, 764477400.00, 0.013600, 0.035700, -0.010300
2024/03/23 14:55:00, 764477700.00, 0.017300, 0.025900, -0.011500
2024/03/23 15:00:00, 764478000.00, 0.027700, 0.016900, -0.006200
2024/03/23 15:05:00, 764478300.00, 0.023100, 0.030600, -0.019800
2024/03/23 15:10:00, 764478600.00, 0.020200, 0.023400, -0.003100
2024/03/23 15:15:00, 764478900.00, 0.022600, 0.025800, -0.034700
2024/03/23 15:20:00, 764479200.00, 0.028100, 0.025000, -0.019200
2024/03/23 15:25:00, 764479500.00, 0.010900, 0.029300, -0.015300
2024/03/23 15:30:00, 764479800.00, 0.019800, 0.023100, -0.016400
2024/03/23 15:35:00, 764480100.00, 0.021300, 0.016900, -0.019600
2024/03/23 15:40:00, 764480400.00, 0.023100, 0.017700, -0.015000
2024/03/23 15:45:00, 764480700.00, 0.009200, 0.025000, -0.013500
2024/03/23 15:50:00, 764481000.00, 0.022700, 0.024200, -0.006100
2024/03/23 15:55:00, 764481300.00, 0.013900, 0.023200, -0.009500
2024/03/23 16:00:00, 764481600.00, 0.011500, 0.026300, -0.004700
2024/03/23 16:05:00, 764481900.00, 0.004300, 0.019400, -0.005300
2024/03/23 16:10:00, 764482200.00, 0.013100, 0.017600, -0.003900
2024/03/23 16:15:00, 764482500.00, 0.004200, 0.019600, 0.001400
2024/03/23 16:20:00, 764482800.00, 0.000300, 0.017400, -0.010500
2024/03/23 16:25:00, 764483100.00, -0.006500, 0.020000, -0.031900
2024/03/23 16:30:00, 764483400.00, -0.005600, 0.012600, -0.024500
2024/03/23 16:35:00, 764483700.00, 0.003000, 0.016200, -0.007800
2024/03/23 16:40:00, 764484000.00, 0.007900, 0.018700, 0.002400
2024/03/23 16:45:00, 764484300.00, 0.004000, 0.022600, 0.013200
2024/03/23 16:50:00, 764484600.00, 0.006600, 0.023500, -0.016000
2024/03/23 16:55:00, 764484900.00, 0.002500, 0.022500, -0.008000
2024/03/23 17:00:00, 764485200.00, 0.005600, 0.023300, 0.000700
2024/03/23 17:05:00, 764485500.00, 0.005900, 0.024800, -0.001000
2024/03/23 17:10:00, 764485800.00, 0.020500, 0.027200, -0.006100
2024/03/23 17:15:00, 764486100.00, 0.011400, 0.027800, 0.008100
2024/03/23 17:20:00, 764486400.00, 0.010200, 0.030300, -0.015300
2024/03/23 17:25:00, 764486700.00, 0.016700, 0.019500, 0.002500
2024/03/23 17:30:00, 764487000.00, 0.020500, 0.028500, -0.004700
2024/03/23 17:35:00, 764487300.00, 0.020000, 0.022700, -0.007600
2024/03/23 17:40:00, 764487600.00, 0.020300, 0.022400, -0.006900
2024/03/23 17:45:00, 764487900.00, 0.017800, 0.020900, 0.007900
2024/03/23 17:50:00, 764488200.00, 0.024900, 0.022900, -0.008600
2024/03/23 17:55:00, 764488500.00, 0.019500, 0.013800, 0.010200
2024/03/23 18:00:00, 764488800.00, 0.021000, 0.020900, 0.007300
2024/03/23 18:05:00, 764489100.00, 0.019200, 0.008300, 0.014500
2024/03/23 18:10:00, 764489400.00, 0.020400, 0.024100, -0.012000
2024/03/23 18:15:00, 764489700.00, 0.014500, 0.021600, -0.012800
2024/03/23 18:20:00, 764490000.00, 0.022000, 0.008900, 0.002600
2024/03/23 18:25:00, 764490300.00, 0.015800, 0.003400, 0.014600
2024/03/23 18:30:00, 764490600.00, 0.007600, 0.018000, -0.012900
2024/03/23 18:35:00, 764490900.00, 0.009500, 0.028900, -0.015000
2024/03/23 18:40:00, 764491200.00, 0.001600, 0.011300, 0.011900
2024/03/23 18:45:00, 764491500.00, 0.011500, 0.026600, -0.005400
2024/03/23 18:50:00, 764491800.00, 0.021100, 0.020000, 0.010700
2024/03/23 18:55:00, 764492100.00, 0.020600, 0.022500, -0.011200
2024/03/23 19:00:00, 764492400.00, 0.017900, 0.018500, -0.006900
2024/03/23 19:05:00, 764492700.00, 0.013800, 0.019600, -0.015100
2024/03/23 19:10:00, 764493000.00, 0.011400, 0.013800, -0.004900
2024/03/23 19:15:00, 764493300.00, 0.027600, 0.023900, -0.000400
2024/03/23 19:20:00, 764493600.00, 0.005700, 0.019900, 0.008400
2024/03/23 19:25:00, 764493900.00, 0.001200, 0.013500, -0.003200
2024/03/23 19:30:00, 764494200.00, 0.021600, 0.019600, -0.006000
2024/03/23 19:35:00, 764494500.00, 0.019500, 0.019400, 0.010300
2024/03/23 19:40:00, 764494800.00, 0.018500, 0.020500, 0.020400
2024/03/23 19:45:00, 764495100.00, 0.014200, 0.017200, 0.020400
2024/03/23 19:50:00, 764495400.00, 0.015300, 0.016700, 0.011400
2024/03/23 19:55:00, 764495700.00, 0.016200, 0.018800, 0.036200
2024/03/23 20:00:00, 764496000.00, 0.016500, 0.017100, -0.014800
2024/03/23 20:05:00, 764496300.00, 0.002100, 0.018300, -0.022800
2024/03/23 20:10:00, 764496600.00, 0.001000, 0.011700, -0.048200
2024/03/23 20:15:00, 764496900.00, -0.012100, 0.022700, -0.028600
2024/03/23 20:20:00, 764497200.00, -0.012700, 0.027300, -0.005000
2024/03/23 20:25:00, 764497500.00, -0.018000, 0.027800, 0.007600
2024/03/23 20:30:00, 764497800.00, -0.015700, 0.023900, -0.017900
2024/03/23 20:35:00, 764498100.00, -0.005900, 0.018000, 0.001300
2024/03/23 20:40:00, 764498400.00, -0.010500, 0.014700, -0.016800
2024/03/23 20:45:00, 764498700.00, -0.011500, 0.023300, 0.006000
2024/03/23 20:50:00, 764499000.00, -0.006300, 0.019600, -0.005400
2024/03/23 20:55:00, 764499300.00, -0.008800, 0.024400, -0.014200
2024/03/23 21:00:00, 764499600.00, -0.009200, 0.024200, 0.031500
2024/03/23 21:05:00, 764499900.00, -0.009400, 0.021000, -0.014800
2024/03/23 21:10:00, 764500200.00, 0.003700, 0.028100, 0.032700
2024/03/23 21:15:00, 764500500.00, 0.010100, 0.036400, 0.018800
2024/03/23 21:20:00, 764500800.00, -0.001100, 0.032400, 0.004200
2024/03/23 21:25:00, 764501100.00, 0.000400, 0.025900, 0.020100
2024/03/23 21:30:00, 764501400.00, -0.002000, 0.044000, -0.007800
2024/03/23 21:35:00, 764501700.00, 0.007200, 0.029900, -0.006600
2024/03/23 21:40:00, 764502000.00, 0.004000, 0.025300, 0.024800
2024/03/23 21:45:00, 764502300.00, -0.003800, 0.029400, 0.013800
2024/03/23 21:50:00, 764502600.00, 0.011200, 0.028500, 0.016500
2024/03/23 21:55:00, 764502900.00, 0.003900, 0.031100, 0.002800
2024/03/23 22:00:00, 764503200.00, -0.009600, 0.027400, 0.004000
2024/03/23 22:05:00, 764503500.00, 0.014000, 0.023300, 0.013600
2024/03/23 22:10:00, 764503800.00, 0.024800, 0.025900, 0.020900
2024/03/23 22:15:00, 764504100.00, 0.023800, 0.040700, 0.036700
2024/03/23 22:20:00, 764504400.00, -0.000600, 0.028200, 0.001500
2024/03/23 22:25:00, 764504700.00, -0.000400, 0.034700, -0.003500
2024/03/23 22:30:00, 764505000.00, 0.008100, 0.021600, 0.010000
2024/03/23 22:35:00, 764505300.00, 0.011600, 0.027600, 0.019200
2024/03/23 22:40:00, 764505600.00, 0.008900, 0.028100, 0.018200
2024/03/23 22:45:00, 764505900.00, 0.002700, 0.020500, 0.010300
2024/03/23 22:50:00, 764506200.00, -0.001700, 0.025100, 0.046700
2024/03/23 22:55:00, 764506500.00, 0.008600, 0.034500, -0.016400
2024/03/23 23:00:00, 764506800.00, -0.007000, 0.020700, -0.001800
2024/03/23 23:05:00, 764507100.00, -0.000500, 0.026000, 0.019000
2024/03/23 23:10:00, 764507400.00, -0.005900, 0.028100, -0.004500
2024/03/23 23:15:00, 764507700.00, -0.003400, 0.025200, -0.000200
2024/03/23 23:20:00, 764508000.00, 0.004000, 0.025700, 0.040800
2024/03/23 23:25:00, 764508300.00, -0.007700, 0.017700, -0.002700
2024/03/23 23:30:00, 764508600.00, -0.001200, 0.027000, 0.011000
2024/03/23 23:35:00, 764508900.00, -0.006400, 0.025700, 0.021700
2024/03/23 23:40:00, 764509200.00, 0.000800, 0.017600, 0.034200
2024/03/23 23:45:00, 764509500.00, -0.002100, 0.012800, 0.019500
2024/03/23 23:50:00, 764509800.00, -0.002700, 0.022200, 0.017000
2024/03/23 23:55:00, 764510100.00, -0.002800, 0.025300, -0.001100
2024/03/25 00:00:00, 764596800.00, -0.009800, -0.002000, -0.016200
2024/03/25 00:05:00, 764597100.00, -0.007800, 0.000100, -0.003500
2024/03/25 00:10:00, 764597400.00, -0.011200, 0.003300, -0.008200
2024/03/25 00:15:00, 764597700.00, -0.005200, -0.009500, 0.002300
2024/03/25 00:20:00, 764598000.00, -0.009100, -0.005900, 0.001300
2024/03/25 00:25:00, 764598300.00, -0.002000, -0.004400, 0.002400
2024/03/25 00:30:00, 764598600.00, -0.019800, -0.003300, -0.014500
2024/03/25 00:35:00, 764598900.00, -0.012900, -0.006300, -0.006400
2024/03/25 00:40:00, 764599200.00, -0.003500, -0.004600, -0.000800
2024/03/25 00:45:00, 764599500.00, -0.001400, -0.004500, -0.003500
2024/03/25 00:50:00, 764599800.00, 0.006800, -0.005100, -0.006600
2024/03/25 00:55:00, 764600100.00, -0.001000, -0.001600, 0.028700
2024/03/25 01:00:00, 764600400.00, -0.003300, 0.000900, 0.008000
2024/03/25 01:05:00, 764600700.00, 0.000200, 0.006600, 0.008300
2024/03/25 01:10:00, 764601000.00, 0.000200, 0.004000, 0.008400
2024/03/25 01:15:00, 764601300.00, 0.006200, 0.005700, 0.010700
2024/03/25 01:20:00, 764601600.00, 0.012000, 0.005300, -0.004100
2024/03/25 01:25:00, 764601900.00, 0.000400, 0.010100, 0.000900
2024/03/25 01:30:00, 764602200.00, 0.004600, 0.005000, -0.011700
2024/03/25 01:35:00, 764602500.00, 0.007200, 0.007300, 0.000800
2024/03/25 01:40:00, 764602800.00, 0.007000, 0.009700, 0.001000
2024/03/25 01:45:00, 764603100.00, 0.008100, -0.000500, 0.017900
2024/03/25 01:50:00, 764603400.00, 0.005200, 0.005200, -0.010900
2024/03/25 01:55:00, 764603700.00, 0.011000, 0.005700, 0.003300
2024/03/25 02:00:00, 764604000.00, 0.008800, 0.009300, -0.001200
2024/03/25 02:05:00, 764604300.00, 0.009000, 0.005600, 0.005900
2024/03/25 02:10:00, 764604600.00, 0.008800, 0.005400, 0.002900
2024/03/25 02:15:00, 764604900.00, 0.007700, 0.010000, 0.011400
2024/03/25 02:20:00, 764605200.00, -0.005500, 0.011500, 0.009200
2024/03/25 02:25:00, 764605500.00, 0.015900, 0.012300, -0.014000
2024/03/25 02:30:00, 764605800.00, 0.012800, 0.004400, 0.012000
2024/03/25 02:35:00, 764606100.00, 0.009800, 0.003800, 0.007500
2024/03/25 02:40:00, 764606400.00, 0.008800, 0.006700, 0.006100
2024/03/25 02:45:00, 764606700.00, 0.016900, 0.004800, 0.014200
2024/03/25 02:50:00, 764607000.00, 0.012100, 0.006300, 0.007100
2024/03/25 02:55:00, 764607300.00, 0.011600, 0.004400, 0.008000
2024/03/25 03:00:00, 764607600.00, 0.018400, 0.005000, 0.030800
2024/03/25 03:05:00, 764607900.00, 0.015100, -0.002900, 0.029200
2024/03/25 03:10:00, 764608200.00, 0.011400, 0.004700, 0.032800
2024/03/25 03:15:00, 764608500.00, 0.015500, 0.000800, 0.023400
2024/03/25 03:20:00, 764608800.00, 0.025600, 0.003200, 0.030300
2024/03/25 03:25:00, 764609100.00, 0.006000, 0.001800, 0.016900
2024/03/25 03:30:00, 764609400.00, 0.022100, 0.004200, 0.014800
2024/03/25 03:35:00, 764609700.00, 0.009600, 0.005300, -0.003000
2024/03/25 03:40:00, 764610000.00, -0.005500, -0.000500, -0.003800
2024/03/25 03:45:00, 764610300.00, 0.007900, 0.004100, 0.006000
2024/03/25 03:50:00, 764610600.00, 0.023900, 0.002600, 0.006500
2024/03/25 03:55:00, 764610900.00, 0.006700, 0.008200, -0.001800
2024/03/25 04:00:00, 764611200.00, -0.006200, -0.001200, 0.010300
2024/03/25 04:05:00, 764611500.00, 0.003500, -0.000300, 0.013000
2024/03/25 04:10:00, 764611800.00, -0.004500, -0.001100, 0.016700
2024/03/25 04:15:00, 764612100.00, -0.000700, 0.001500, -0.005000
2024/03/25 04:20:00, 764612400.00, -0.011600, 0.000500, 0.014900
2024/03/25 04:25:00, 764612700.00, 0.002200, -0.007100, 0.002100
2024/03/25 04:30:00, 764613000.00, -0.002100, -0.005100, -0.003800
2024/03/25 04:35:00, 764613300.00, -0.008100, -0.001600, -0.011000
2024/03/25 04:40:00, 764613600.00, -0.000400, -0.004800, 0.010300
2024/03/25 04:45:00, 764613900.00, -0.000200, 0.003200, 0.009400
2024/03/25 04:50:00, 764614200.00, 0.002400, 0.006000, 0.010100
2024/03/25 04:55:00, 764614500.00, 0.003300, 0.011600, 0.002000
2024/03/25 05:00:00, 764614800.00, 0.012200, 0.000700, 0.022100
2024/03/25 05:05:00, 764615100.00, 0.008000, 0.002400, 0.017600
2024/03/25 05:10:00, 764615400.00, 0.015400, 0.003700, 0.028600
2024/03/25 05:15:00, 764615700.00, 0.000400, 0.002100, 0.012600
2024/03/25 05:20:00, 764616000.00, -0.001800, 0.011900, 0.010500
2024/03/25 05:25:00, 764616300.00, 0.007500, 0.005200, 0.016700
2024/03/25 05:30:00, 764616600.00, 0.006300, 0.004500, 0.027800
2024/03/25 05:35:00, 764616900.00, 0.000600, 0.011300, 0.005400
2024/03/25 05:40:00, 764617200.00, 0.017600, -0.004100, 0.051800
2024/03/25 05:45:00, 764617500.00, 0.012800, 0.003400, 0.034200
2024/03/25 05:50:00, 764617800.00, 0.007900, 0.010900, 0.009700
2024/03/25 05:55:00, 764618100.00, 0.007000, 0.005400, 0.036600
2024/03/25 06:00:00, 764618400.00, 0.021800, -0.002300, 0.038400
2024/03/25 06:05:00, 764618700.00, -0.002600, 0.007900, 0.005200
2024/03/25 06:10:00, 764619000.00, 0.017300, 0.013400, 0.010900
2024/03/25 06:15:00, 764619300.00, 0.009300, 0.010400, 0.015200
2024/03/25 06:20:00, 764619600.00, 0.000400, 0.009900, 0.029900
2024/03/25 06:25:00, 764619900.00, 0.009000, 0.004500, 0.005500
2024/03/25 06:30:00, 764620200.00, 0.015600, 0.009900, 0.046200
2024/03/25 06:35:00, 764620500.00, 0.035200, 0.011300, 0.002800
2024/03/25 06:40:00, 764620800.00, 0.024000, 0.013800, 0.010300